Weather History for Punta Gorda, FL

Change the Weather History Date:

Wednesday, January 23, 2013

  Actual Average Record
Temperature  
Mean Temperature 60 °F -  
Max Temperature 73 °F 71 °F 84 °F (1999)
Min Temperature 48 °F 47 °F 34 °F (2009)
Degree Days  
Heating Degree Days 4    
Growing Degree Days 10 (Base 50)    
Moisture  
Dew Point 37 °F    
Average Humidity 50    
Maximum Humidity 74    
Minimum Humidity 21    
Precipitation  
Precipitation 0.00 in - - ()
Sea Level Pressure  
Sea Level Pressure 30.32 in    
Wind  
Wind Speed 8 mph (NNE)    
Max Wind Speed 13 mph    
Max Gust Speed 16 mph    
Visibility 10 miles    
Events      
Averages and records for this station are not official NWS values.
T = Trace of Precipitation, MM = Missing Value Source: NWS Daily Summary

Daily Weather History Graph

Daily Weather History Graph

Search for Another Location

Airport:

Trip Planner

Search our weather history database for the weather conditions in past years. The results will help you decide how hot, cold, wet, or windy it might be!

Date:

Astronomy

Jan. 23, 2013 Rise Set
Actual Time 7:16 AM EST 6:03 PM EST
Civil Twilight 6:52 AM EST 6:27 PM EST
Nautical Twilight 6:24 AM EST 6:56 PM EST
Astronomical Twilight 5:56 AM EST 7:23 PM EST
Moon 3:16 PM EST (1/23) 4:23 AM EST (1/23)
Length of Visible Light 11h 35m
Length of Day
10h 46m
Waxing Gibbous, 89% of the Moon is Illuminated
Jan 23
Waxing Gibbous
Jan 26
Full
Feb 3
Last Quarter
Feb 10
New
Feb 17
First Quarter

Hourly Weather History & Observations

Time (EST) Temp. Dew Point Humidity Pressure Visibility Wind Dir Wind Speed Gust Speed Precip Events Conditions
12:53 AM 52.0 °F 41.0 °F 66% 30.28 in 10.0 mi NE 8.1 mph - N/A   Clear
1:53 AM 50.0 °F 39.9 °F 68% 30.28 in 10.0 mi NE 5.8 mph - N/A   Clear
2:53 AM 48.9 °F 39.9 °F 71% 30.28 in 10.0 mi NNE 6.9 mph - N/A   Clear
3:53 AM 48.9 °F 41.0 °F 74% 30.28 in 10.0 mi NE 6.9 mph - N/A   Clear
4:53 AM 50.0 °F 39.0 °F 66% 30.29 in 10.0 mi NNE 8.1 mph - N/A   Clear
5:53 AM 50.0 °F 37.0 °F 61% 30.31 in 10.0 mi NNE 9.2 mph - N/A   Clear
6:53 AM 50.0 °F 37.9 °F 63% 30.33 in 10.0 mi NNE 10.4 mph - N/A   Clear
7:53 AM 51.1 °F 37.9 °F 61% 30.34 in 10.0 mi NNE 11.5 mph - N/A   Clear
8:53 AM 52.0 °F 37.0 °F 57% 30.36 in 10.0 mi NNE 10.4 mph - N/A   Clear
9:53 AM 60.1 °F 35.1 °F 39% 30.37 in 10.0 mi NNE 11.5 mph - N/A   Clear
10:53 AM 64.9 °F 37.0 °F 36% 30.37 in 10.0 mi NE 12.7 mph - N/A   Clear
11:53 AM 69.1 °F 39.9 °F 35% 30.35 in 10.0 mi NNE 11.5 mph 16.1 mph N/A   Clear
12:53 PM 72.0 °F 39.9 °F 31% 30.32 in 10.0 mi NE 8.1 mph - N/A   Clear
1:53 PM 73.9 °F 36.0 °F 25% 30.30 in 10.0 mi NNW 5.8 mph - N/A   Clear
2:53 PM 73.9 °F 33.1 °F 22% 30.29 in 10.0 mi NNE 12.7 mph - N/A   Clear
3:53 PM 73.9 °F 32.0 °F 21% 30.28 in 10.0 mi North 9.2 mph - N/A   Clear
4:53 PM 73.0 °F 32.0 °F 22% 30.29 in 10.0 mi NNE 8.1 mph - N/A   Clear
5:53 PM 63.0 °F 35.1 °F 35% 30.30 in 10.0 mi NNE 6.9 mph - N/A   Clear
6:53 PM 57.9 °F 37.0 °F 46% 30.30 in 10.0 mi North 5.8 mph - N/A   Clear
7:53 PM 57.0 °F 39.0 °F 51% 30.32 in 10.0 mi North 5.8 mph - N/A   Clear
8:53 PM 54.0 °F 39.0 °F 57% 30.34 in 10.0 mi NNE 5.8 mph - N/A   Clear
9:53 PM 52.0 °F 36.0 °F 54% 30.34 in 10.0 mi North 4.6 mph - N/A   Clear
10:53 PM 51.1 °F 37.0 °F 59% 30.33 in 10.0 mi NE 4.6 mph - N/A   Clear
11:53 PM 48.0 °F 39.0 °F 71% 30.32 in 10.0 mi Calm Calm - N/A   Clear